Tracking 35274 objects as of 10-Sep-2026
HD Live streaming from Space Station
objects crossing your sky now

IRIDIUM 33 DEB

Track IRIDIUM 33 DEB now!
10-day predictions


NORAD ID: 46435
Int'l Code: 1997-051ABN
Launch date: September 14, 1997
Source: United States (US)
Launch site: TYURATAM MISSILE AND SPACE COMPLEX (TTMTR)

Note: This is SATELLITE DEBRIS
Your satellite tracking list
Your tracking list is empty




NASA's NSSDC Master Catalog

Two Line Element Set (TLE):
1 46435U 97051ABN 26251.28069507  .00013672  00000-0  33740-2 0  9995
2 46435  86.2724  76.8080 0202240 109.6906  13.0377 14.40348703117894
Source of the keplerian elements: AFSPC